Location: Unspecified
(35.6961°N, 0.0000°E)
Time: 20:39:36
(UTC+00:00)

Vanguard 3 - Pass Details

Date: 30 May 2019
Orbit: 508 x 3263 km, 33.3° (Epoch: 23 June)

Event Time Altitude Azimuth Distance (km) Brightness Sun altitude
Rises 18:29:07 0° 236° (SW) 2,630 10.3 6.5°
Reaches altitude 10° 18:31:08 10° 228° (SW) 1,828 9.4 6.1°
Maximum altitude 18:34:54 40° 157° (SSE) 987 7.4 5.4°
Drops below altitude 10° 18:40:18 10° 89° (E) 2,635 9.2 4.4°
Sets 18:43:47 0° 83° (E) 3,995 10.2 3.8°
